Retour au catalogue

SL-16 DEB

ActifLEO
NORAD 39709·DEBRIS·🇷🇺 Russia

Lancé Dec 25, 1992 depuis Baikonur Cosmodrome

Loading…

Prochains Passages (prochaines 24 heures)

TLE

FraisSource: Space-Track

Époque: Sep 13, 2026, 08:45 UTC

1 39709U 92093JZ  26256.36502837  .00000243  00000-0  19743-3 0  9992
2 39709  71.1452 124.4712 0143940 272.9628  85.5021 13.94718008630504

Suivez SL-16 DEB en temps réel avec AllMySat

Download on the App Store